Terminal Aerodrome Forecast
Issued by NWS Atlanta, GA

Home | Current Version | Previous Version | Text Only | Print | Product List | Glossary On
Versions: 1 2 3 4 5 6 7 8 9 10 11 12 13 14 15 16 17 18 19 20 21 22 23 24 25 26 27 28 29 30 31 32 33 34 35 36 37 38 39
000
FTUS42 KFFC 300300 AAD
TAFATL
TAF AMD
KATL 300345Z 3004/0106 07007KT P6SM SCT006 BKN012
      TEMPO 3004/3006 BKN007
     FM300600 06004KT 4SM BR BKN006
     FM301300 04005KT P6SM SCT015
     FM301800 02006KT P6SM FEW040=

USA.gov is the U.S. government's official web portal to all federal, state and local government web resources and services.